Preview of NWS' New Version of Forecast
This preview is not operational and should not be used for support decisions.

Regional Weather Roundup (RWR)

Issued by National Weather Service (NWS)

                            
000
ASUS45 KBOI 161110
RWRID 

IDAHO REGIONAL WEATHER ROUNDUP
NATIONAL WEATHER SERVICE BOISE ID
500 AM MDT MON SEP 16 2019

NOTE: "FAIR" INDICATES FEW OR NO CLOUDS BELOW 12000 FEET
WITH NO SIGNIFICANT WEATHER AND/OR OBSTRUCTIONS TO VISIBILITY

IDZ012-014-161200-
SOUTHWEST IDAHO

  
CITY           SKY/WX    TMP DP  RH WIND       PRES   REMARKS
BOISE          CLOUDY    62  41  46 W5        29.75S                  
CALDWELL       CLOUDY    58  44  60 W8        29.75S                  
MOUNTAIN HOME  CLOUDY    64  31  30 CALM      29.74R                  
$$

IDZ016-017-161200-
SOUTHCENTRAL IDAHO

  
CITY           SKY/WX    TMP DP  RH WIND       PRES   REMARKS
BURLEY         CLEAR     54  36  50 CALM      29.82R                  
JEROME         MOCLDY    60  33  36 S5        29.81S                  
TWIN FALLS     CLOUDY    63  30  28 SW12      29.82R                  
$$

IDZ019>023-161200-
SOUTHEAST IDAHO

  
CITY           SKY/WX    TMP DP  RH WIND       PRES   REMARKS
IDAHO FALLS    MOCLDY    57  36  45 CALM      29.86S                  
POCATELLO      PTCLDY    66  28  24 S9        29.85R                  
REXBURG        MOCLDY    65  31  28 S6        29.86F                  
$$

IDZ006-010-011-018-031-032-161200-
CENTRAL IDAHO MOUNTAINS

  
CITY           SKY/WX    TMP DP  RH WIND       PRES   REMARKS
MCCALL         CLOUDY    50  39  66 CALM      29.80F                  
HAILEY         PTCLDY    46  34  61 NW9       29.89S                  
STANLEY          N/A     39  26  59 SW3       29.93S                  
SALMON         PTCLDY    45  35  68 SE3       29.78R                  
CHALLIS        NOT AVBL                                               
$$

IDZ002-004-006-007-026-161200-
NORTHERN IDAHO

  
CITY           SKY/WX    TMP DP  RH WIND       PRES   REMARKS
LEWISTON       CLOUDY    61  44  53 S3        29.76S                  
LOWELL           N/A     52  49  89 CALM      29.80R                  
COEUR D'ALENE  MOCLDY    53  45  74 W5        29.78S                  
MULLAN PASS    CLEAR     45  40  82 NW6       29.84S                  
$$